• In Latvia
  • List of Countries
  • For 7 days
  • Water Temperature
  • Satellite Maps
  • Weather Map
  • Weather Widgets
  • user-avatar
    Login

    Hourly Weather Shkoder

    Today, 23 August, Wednesday

    Time Temperature Precipitation Wind Pressure Humidity
    00:00 +16°C° 0 mm 3 mps 740 mmHg 66%
    01:00 +16°C° 0 mm 3 mps 740 mmHg 68%
    02:00 +16°C° 0 mm 3 mps 740 mmHg 69%
    03:00 +16°C° 0 mm 3 mps 740 mmHg 70%
    04:00 +14°C° 0 mm 3 mps 740 mmHg 71%
    05:00 +17°C° 0 mm 3 mps 740 mmHg 65%
    06:00 +19°C° 0 mm 3 mps 740 mmHg 60%
    07:00 +21°C° 0 mm 3 mps 741 mmHg 54%
    08:00 +24°C° 0 mm 2 mps 741 mmHg 47%
    09:00 +26°C° 0 mm 2 mps 741 mmHg 41%
    10:00 +27°C° 0 mm 1 mps 741 mmHg 34%
    11:00 +28°C° 0 mm 2 mps 741 mmHg 32%
    12:00 +29°C° 0 mm 2 mps 741 mmHg 30%
    13:00 +29°C° 0 mm 2 mps 741 mmHg 31%
    14:00 +29°C° 0 mm 3 mps 741 mmHg 31%
    15:00 +29°C° 0 mm 3 mps 741 mmHg 31%
    16:00 +29°C° 0 mm 3 mps 741 mmHg 31%
    17:00 +26°C° 0 mm 2 mps 741 mmHg 38%
    18:00 +24°C° 0 mm 2 mps 741 mmHg 45%
    19:00 +20°C° 0 mm 2 mps 741 mmHg 52%
    20:00 +20°C° 0 mm 2 mps 742 mmHg 51%
    21:00 +19°C° 0 mm 2 mps 742 mmHg 50%
    22:00 +19°C° 0 mm 2 mps 742 mmHg 48%
    23:00 +18°C° 0 mm 2 mps 742 mmHg 49%

    Tomorrow, 24 August, Thursday

    Time Temperature Precipitation Wind Pressure Humidity
    00:00 +18°C° 0 mm 3 mps 742 mmHg 49%
    01:00 +17°C° 0 mm 3 mps 743 mmHg 49%
    02:00 +17°C° 0 mm 3 mps 743 mmHg 50%
    03:00 +17°C° 0 mm 3 mps 742 mmHg 51%
    04:00 +17°C° 0 mm 3 mps 742 mmHg 52%
    05:00 +18°C° 0 mm 3 mps 743 mmHg 49%
    06:00 +20°C° 0 mm 2 mps 743 mmHg 46%
    07:00 +23°C° 0 mm 2 mps 743 mmHg 43%
    08:00 +25°C° 0 mm 2 mps 743 mmHg 37%
    09:00 +27°C° 0 mm 2 mps 743 mmHg 31%
    10:00 +30°C° 0 mm 1 mps 743 mmHg 25%
    11:00 +31°C° 0 mm 2 mps 743 mmHg 23%
    12:00 +31°C° 0 mm 2 mps 743 mmHg 22%
    13:00 +33°C° 0 mm 3 mps 743 mmHg 21%
    14:00 +33°C° 0 mm 3 mps 743 mmHg 22%
    15:00 +33°C° 0 mm 3 mps 743 mmHg 24%
    16:00 +31°C° 0 mm 3 mps 742 mmHg 25%
    17:00 +29°C° 0 mm 3 mps 743 mmHg 31%
    18:00 +26°C° 0 mm 2 mps 743 mmHg 37%
    19:00 +23°C° 0 mm 2 mps 743 mmHg 44%
    20:00 +23°C° 0 mm 2 mps 743 mmHg 42%
    21:00 +21°C° 0 mm 2 mps 744 mmHg 40%
    22:00 +21°C° 0 mm 2 mps 744 mmHg 39%
    23:00 +20°C° 0 mm 2 mps 744 mmHg 39%

    Day after tomorrow, 25 August, Friday

    Time Temperature Precipitation Wind Pressure Humidity
    00:00 +20°C° 0 mm 2 mps 744 mmHg 39%
    01:00 +20°C° 0 mm 2 mps 744 mmHg 39%
    02:00 +20°C° 0 mm 2 mps 744 mmHg 41%
    03:00 +19°C° 0 mm 2 mps 744 mmHg 42%
    04:00 +19°C° 0 mm 2 mps 744 mmHg 43%
    05:00 +21°C° 0 mm 2 mps 744 mmHg 42%
    06:00 +24°C° 0 mm 2 mps 744 mmHg 41%
    07:00 +25°C° 0 mm 2 mps 744 mmHg 40%
    08:00 +28°C° 0 mm 2 mps 744 mmHg 35%
    09:00 +30°C° 0 mm 2 mps 744 mmHg 30%
    10:00 +33°C° 0 mm 1 mps 744 mmHg 25%
    11:00 +34°C° 0 mm 2 mps 743 mmHg 23%
    12:00 +35°C° 0 mm 2 mps 743 mmHg 22%
    13:00 +36°C° 0 mm 3 mps 743 mmHg 20%
    14:00 +36°C° 0 mm 3 mps 742 mmHg 21%
    15:00 +35°C° 0 mm 3 mps 742 mmHg 23%
    16:00 +35°C° 0 mm 3 mps 742 mmHg 24%
    17:00 +31°C° 0 mm 3 mps 742 mmHg 29%
    18:00 +28°C° 0 mm 2 mps 742 mmHg 34%
    19:00 +25°C° 0 mm 2 mps 742 mmHg 39%
    20:00 +24°C° 0 mm 2 mps 742 mmHg 38%
    21:00 +24°C° 0 mm 2 mps 742 mmHg 36%
    22:00 +23°C° 0 mm 2 mps 743 mmHg 34%
    23:00 +23°C° 0 mm 2 mps 743 mmHg 34%

    26 August, Saturday

    Time Temperature Precipitation Wind Pressure Humidity
    00:00 +23°C° 0 mm 2 mps 742 mmHg 34%
    01:00 +21°C° 0 mm 2 mps 742 mmHg 33%
    02:00 +21°C° 0 mm 2 mps 742 mmHg 34%
    03:00 +21°C° 0 mm 2 mps 742 mmHg 35%
    04:00 +21°C° 0 mm 2 mps 742 mmHg 36%
    05:00 +23°C° 0 mm 2 mps 742 mmHg 35%
    06:00 +25°C° 0 mm 2 mps 742 mmHg 35%
    07:00 +26°C° 0 mm 2 mps 742 mmHg 34%
    08:00 +29°C° 0 mm 2 mps 742 mmHg 30%
    09:00 +31°C° 0 mm 1 mps 742 mmHg 25%
    10:00 +34°C° 0 mm 1 mps 742 mmHg 21%
    11:00 +36°C° 0 mm 2 mps 742 mmHg 20%
    12:00 +36°C° 0 mm 2 mps 741 mmHg 19%
    13:00 +37°C° 0 mm 3 mps 741 mmHg 18%
    14:00 +37°C° 0 mm 3 mps 741 mmHg 19%
    15:00 +36°C° 0 mm 3 mps 741 mmHg 21%
    16:00 +36°C° 0 mm 3 mps 740 mmHg 23%
    17:00 +32°C° 0 mm 2 mps 740 mmHg 28%
    18:00 +29°C° 0 mm 2 mps 740 mmHg 34%
    19:00 +26°C° 0 mm 1 mps 740 mmHg 39%
    20:00 +25°C° 0 mm 1 mps 741 mmHg 37%
    21:00 +25°C° 0 mm 2 mps 741 mmHg 35%
    22:00 +25°C° 0 mm 2 mps 741 mmHg 33%
    23:00 +24°C° 0 mm 2 mps 741 mmHg 32%

    27 August, Sunday

    Time Temperature Precipitation Wind Pressure Humidity
    00:00 +24°C° 0 mm 2 mps 741 mmHg 32%
    01:00 +24°C° 0 mm 2 mps 741 mmHg 31%
    02:00 +23°C° 0 mm 2 mps 741 mmHg 32%
    03:00 +23°C° 0 mm 2 mps 741 mmHg 33%
    04:00 +23°C° 0 mm 2 mps 740 mmHg 33%
    05:00 +24°C° 0 mm 2 mps 741 mmHg 33%
    06:00 +26°C° 0 mm 2 mps 741 mmHg 33%
    07:00 +28°C° 0 mm 2 mps 741 mmHg 33%
    08:00 +30°C° 0 mm 2 mps 741 mmHg 29%
    09:00 +33°C° 0 mm 1 mps 741 mmHg 25%
    10:00 +35°C° 0 mm 1 mps 741 mmHg 21%
    11:00 +37°C° 0 mm 2 mps 740 mmHg 20%
    12:00 +37°C° 0 mm 2 mps 740 mmHg 19%
    13:00 +38°C° 0 mm 3 mps 740 mmHg 18%
    14:00 +38°C° 0 mm 3 mps 739 mmHg 20%
    15:00 +37°C° 0 mm 3 mps 739 mmHg 21%
    16:00 +37°C° 0 mm 3 mps 739 mmHg 23%
    17:00 +34°C° 0 mm 2 mps 739 mmHg 28%
    18:00 +30°C° 0 mm 2 mps 739 mmHg 34%
    19:00 +26°C° 0 mm 1 mps 739 mmHg 40%
    20:00 +26°C° 0 mm 1 mps 739 mmHg 38%
    21:00 +26°C° 0 mm 2 mps 739 mmHg 36%
    22:00 +25°C° 0 mm 2 mps 740 mmHg 34%
    23:00 +25°C° 0 mm 2 mps 740 mmHg 34%

    28 August, Monday

    Time Temperature Precipitation Wind Pressure Humidity
    00:00 +25°C° 0 mm 2 mps 739 mmHg 33%
    01:00 +25°C° 0 mm 2 mps 739 mmHg 33%
    02:00 +24°C° 0 mm 2 mps 739 mmHg 34%
    03:00 +24°C° 0 mm 2 mps 739 mmHg 35%
    04:00 +24°C° 0 mm 2 mps 739 mmHg 36%
    05:00 +25°C° 0 mm 2 mps 739 mmHg 35%
    06:00 +27°C° 0 mm 2 mps 740 mmHg 35%
    07:00 +29°C° 0 mm 1 mps 740 mmHg 34%
    08:00 +31°C° 0 mm 1 mps 740 mmHg 30%
    09:00 +33°C° 0 mm 1 mps 739 mmHg 26%
    10:00 +36°C° 0 mm 1 mps 739 mmHg 22%
    11:00 +37°C° 0 mm 2 mps 739 mmHg 21%
    12:00 +38°C° 0 mm 2 mps 739 mmHg 20%
    13:00 +38°C° 0 mm 3 mps 738 mmHg 19%
    14:00 +38°C° 0 mm 3 mps 738 mmHg 21%
    15:00 +38°C° 0 mm 3 mps 738 mmHg 23%
    16:00 +37°C° 0 mm 3 mps 738 mmHg 24%
    17:00 +34°C° 0 mm 2 mps 738 mmHg 30%
    18:00 +30°C° 0 mm 2 mps 738 mmHg 36%
    19:00 +27°C° 0 mm 2 mps 738 mmHg 41%
    20:00 +27°C° 0 mm 2 mps 738 mmHg 40%
    21:00 +27°C° 0 mm 2 mps 739 mmHg 39%
    22:00 +26°C° 0 mm 2 mps 739 mmHg 38%
    23:00 +26°C° 0 mm 2 mps 739 mmHg 38%
    Show more